Location: Westerlo
(51.0830°N, 4.9170°E)
Time: 02:15:59
(UTC+02:00)

ISS - Pass Details

Date: 29 July 2019
Orbit: 410 x 421 km, 51.6° (Epoch: 25 August)

Event Time Altitude Azimuth Distance (km) Brightness Sun altitude
Rises 00:13:35 0° 284° (WNW) 2,374 0.6 -17.1°
Reaches altitude 10° 00:15:53 10° 272° (W) 1,504 -0.6 -17.2°
Enters shadow 00:18:24 26° 225° (SW) 872 -2.4 -17.4°
